Vorticity
nan nan nan nan nan nan nan nan nan nan nan nan nan nan nan nan nan nan nan nan nan nan nan nan nan nan nan nan nan nan nan nan
nan 8 7 8 7 8 7 6 5 5 7 6 8 7 6 8 9 11 8 7 7 8 7 7 8 9 9 7 7 7 7 nan
nan 9 5 9 8 6 7 7 5 4 6 6 8 7 7 8 9 10 8 8 8 7 6 8 8 8 8 7 6 5 7 nan
nan 7 5 8 8 7 7 7 6 5 3 5 7 7 9 7 9 9 8 8 7 7 8 8 9 6 7 7 7 7 7 nan
nan 8 7 7 8 7 8 8 7 5 4 7 7 7 7 8 8 9 9 8 8 9 8 7 9 7 8 8 8 9 8 nan
nan 7 7 7 7 7 8 9 7 6 5 5 7 6 8 8 10 9 8 9 9 8 8 9 7 7 10 9 9 8 6 nan
nan 9 8 7 6 8 9 8 6 7 6 6 7 7 6 7 9 8 9 8 8 9 9 8 7 8 8 9 10 7 7 nan
nan 8 6 8 7 7 8 8 7 8 8 5 6 8 5 8 8 8 8 6 9 9 8 8 8 9 9 9 8 8 9 nan
nan 7 7 9 9 8 8 8 7 8 7 6 7 6 5 8 9 7 8 9 10 10 8 8 8 8 9 8 7 9 10 nan
nan 7 8 9 10 9 8 7 8 8 7 8 7 5 9 6 6 9 8 9 10 12 9 6 8 8 9 7 8 10 9 nan
nan 8 10 9 10 9 9 9 8 8 10 7 9 8 6 7 9 8 8 8 10 12 10 8 7 7 8 7 8 9 8 nan
nan 10 10 9 10 10 9 9 8 9 9 9 8 9 7 6 7 9 9 8 10 10 12 8 7 7 7 7 8 9 8 nan
nan 10 10 9 9 10 10 8 8 8 10 10 9 8 9 8 6 7 10 7 8 10 10 9 8 8 8 7 7 10 9 nan
nan 11 10 9 8 10 10 9 8 9 11 9 9 9 8 9 8 8 9 9 8 8 9 11 8 8 8 8 7 8 10 nan
nan 10 10 9 10 10 9 10 9 10 9 10 10 10 8 9 10 9 8 10 10 8 9 10 9 9 9 9 6 8 9 nan
nan 10 9 9 9 9 10 11 11 10 9 10 9 10 10 10 10 10 8 8 11 9 8 9 10 7 11 12 9 8 9 nan
nan 8 8 9 10 9 9 10 12 10 10 10 11 11 10 9 9 10 9 9 10 9 9 10 7 10 16 11 9 9 10 nan
nan 12 10 9 10 10 10 9 11 11 10 10 10 12 10 9 10 10 10 10 9 11 10 10 11 12 14 12 9 7 10 nan
nan nan nan nan nan nan nan nan nan nan nan nan nan nan nan nan nan nan nan nan nan nan nan nan nan nan nan nan nan nan nan nan
CAPE
354 200 186 81 12 0 0 0 0 0 0 0 0 0 0 0 0 0 0 0 0 0 8 0 0 0 0 0 0 0 0 0
504 326 262 137 22 0 0 0 0 0 0 0 0 0 0 0 0 3 0 0 0 0 3 0 0 0 0 0 0 0 0 0
564 413 311 254 20 0 0 0 0 0 0 0 0 0 0 0 0 0 0 0 0 0 3 0 0 0 0 0 0 0 0 0
666 465 440 289 52 0 0 0 0 0 0 0 0 0 0 0 0 0 0 0 0 0 0 0 0 0 0 0 0 0 0 0
765 561 564 328 142 0 0 0 0 0 0 0 0 0 0 0 0 0 0 0 0 0 0 0 0 0 0 0 0 0 0 0
881 675 628 461 278 50 0 0 0 0 0 0 0 0 0 0 0 0 0 0 0 0 0 0 0 0 2 0 0 0 0 0
1097 781 713 561 450 267 0 0 0 0 0 0 0 0 0 0 0 0 0 0 0 0 0 0 0 0 0 0 0 0 0 0
1111 836 764 723 648 427 177 0 0 0 0 0 0 0 0 0 0 0 0 0 0 0 0 0 0 0 0 0 0 0 0 0
1108 947 727 748 848 662 435 187 0 0 0 0 0 0 0 0 0 0 0 0 0 0 0 0 0 0 0 0 0 0 0 0
1067 973 739 783 940 914 797 507 297 16 0 0 0 0 0 0 0 0 0 0 0 0 0 0 0 0 0 0 0 0 0 0
974 837 793 848 933 972 1028 825 641 446 12 0 0 0 0 0 0 0 0 0 0 0 0 0 0 0 0 0 0 0 0 0
880 850 970 905 950 999 1069 930 764 653 430 28 0 0 0 0 0 0 0 0 0 0 0 0 0 0 0 0 0 0 0 0
932 849 1086 1013 984 945 997 905 760 639 633 371 48 16 0 0 0 0 0 0 0 0 0 0 0 0 0 0 0 0 0 0
912 796 1106 1136 1110 998 946 858 782 677 550 589 337 121 100 6 0 0 0 0 0 0 0 0 0 0 0 0 0 0 0 0
938 806 1139 1125 1034 973 923 898 817 665 447 418 392 274 189 63 2 0 0 0 0 0 0 0 0 0 0 0 0 0 0 0
974 1039 1270 1162 978 860 835 918 853 696 481 316 322 298 227 149 35 0 0 0 0 0 0 0 0 0 0 0 0 0 0 0
739 854 1010 1096 975 883 826 810 822 761 608 433 365 335 248 171 111 40 0 0 6 0 0 0 0 0 0 0 0 0 0 0
283 428 689 873 984 910 780 639 703 712 699 646 506 450 331 223 174 141 47 10 11 7 2 0 1 0 0 0 0 0 0 0
136 155 239 374 634 934 869 672 607 628 621 554 491 453 386 363 293 184 106 48 28 14 7 5 1 0 0 0 0 0 0 0